THOR ABLESTAR DEB, 330

Orbit data source: Space-Track

THOR ABLESTAR DEB, 330 is space debris in LEO originally from a launch on Thu, 29 Jun 1961 UTC launched from the Air Force Eastern Test Range (AFETR). Debris objects in space refer to the collection of defunct objects orbiting the Earth. Examples of debris include non-operational satellites, rocket bodies, and fragments generated from explosions, collisions, or faulty payload assembly.

Loading next visibility...
Identifier
330, 1961-015DG
Orbit
LEO
Country
Flag of USUS
Related business
Manufacturer
Unknown
Mission
Spacecraft
Bus & Motor
Unknown
Mass
Unknown
Launch date (UTC)
1961-06-29 (64 years ago)
Launch vehicle
Unknown
Launch site
Air Force Eastern Test Range (AFETR)
Object type
Payload
Rocket body
Debris
Shape & HBR
Unknown shape, 0.1 m
Radar Cross Section
Small (<0.1 m²)

Expand to show TLE details & history
Last TLE update: 7 hours ago

TLE from 7 hours ago
0 THOR ABLESTAR DEB
1 00330U 61015DG  25288.55833086  .00001226  00000-0  78083-3 0  9992
2 00330  66.9793 192.5221 0053950 297.2524  62.3074 14.06270994262300
Epoch: 2025-10-15T13:23Z
TLE epoch observation values (Epoch: 2025-10-15T13:23:59.786Z)
Latitude
-0.00001°
Longitude
-32.80769°
Altitude
856.252 km
Speed
7.434 km/s
True Right ascension
12h 50m 05s
True Declination
0° 00' 00"
Sunlit
Object was in daylight at epoch
Visualization orbit readout
Latitude
Unknown
Longitude
Unknown
Altitude
Unknown
Speed
Unknown
Apparent Right ascension
Unknown
Apparent Declination
Unknown
Sunlit
N/A
Visualization observer readout
Local Sidereal Time
15:22:59
Azimuth
Unknown
Elevation
Unknown
Doppler factor
Unknown
Orbital elements
Apogee altitude
909.628 km
Perigee altitude
831.415 km
Semi-major axis
7,248.658 km
Eccentricity
0.0054
Inclination
66.9793°
RAAN
192.5221°
Arg. of periapsis
297.2524°
True anomaly
62.85652°
Mean anomaly
62.3074°
Eccentric anomaly
62.58179°
Mean motion
3.51687 °/min
Orbital period
102.36 mins
BSTAR
0.00078083

Documentation

Showing up to 5 results
|